Location: Berg
(47.2344°N, 9.5296°E)
Time: 14:08:24
(UTC+00:00)

Nauka - Pass Details

Date: 20 September 2021
Orbit: 417 x 423 km, 51.6° (Epoch: 20 October)

Event Time Altitude Azimuth Distance (km) Brightness Sun altitude
Rises 18:51:53 0° 251° (WSW) 2,357 ? -15.6°
Reaches altitude 10° 18:53:59 10° 254° (WSW) 1,496 ? -15.9°
Maximum altitude 18:57:19 69° 339° (NNW) 453 ? -16.4°
Enters shadow 18:58:51 29° 55° (NE) 797 ? -16.7°
